[[{"header":{"parameterUnit":"m.s-1","parameterCategory":2,"la1":30.2991,"la2":30.254,"lo1":-89.0895,"lo2":-89.0444,"dy":0.0017,"dx":0.0017,"nx":28,"ny":28,"refTime":"2024-08-04T21:00:00:Z","depth":"0","parameterNumber":2,"parameterNumberName":"U-component_of_CURRENTS"},"data":[0,0,0,0,0,0,0,0,0,0,0,0,0,0,0,0,0,0,0,0,0,0,0,0,0,0,0,0,0,0,0,0,0,0,0,0,0,0,0,0,0,0,0,0,0,0,0,0,0,0,0,0,0,0,0,0,0,0,-0.236,-0.236,0,-0.2379,-0.2379,-0.2379,-0.2354,-0.2353,-0.2352,-0.2352,-0.2338,-0.2338,-0.2338,0,0,0,0,0,0,0,0,0,0,0,0,0,-0.2279,-0.2281,-0.236,-0.236,-0.2361,-0.2379,-0.2379,-0.2379,-0.2354,-0.2353,-0.2352,-0.2351,-0.2337,-0.2338,-0.2338,0,0,0,0,0,0,0,0,0,0,0,0,0,-0.2308,-0.2282,-0.236,-0.2351,-0.235,-0.2379,-0.2379,-0.238,-0.2355,-0.2353,-0.2352,-0.2351,-0.2337,-0.2338,-0.2339,-0.2369,0,0,-0.2341,-0.2341,0,0,0,0,0,0,0,0,-0.2306,-0.2311,-0.2352,-0.2351,-0.2351,-0.2363,-0.2346,-0.2374,-0.2355,-0.2352,-0.2352,-0.235,-0.2344,-0.2344,-0.2351,-0.2368,-0.2367,-0.2341,-0.2341,-0.2341,-0.2341,0,0,0,0,0,0,0,-0.2304,-0.231,-0.2367,-0.2352,-0.2352,-0.2338,-0.234,-0.2351,-0.2354,-0.2352,-0.2351,-0.2354,-0.2344,-0.235,-0.235,-0.2367,-0.2341,-0.2341,-0.2342,-0.2342,-0.2406,-0.2407,0,0,0,0,0,0,-0.2306,-0.2308,-0.2366,-0.2368,-0.2325,-0.234,-0.2343,-0.236,-0.2355,-0.2353,-0.2355,-0.2353,-0.235,-0.2349,-0.2349,-0.2361,-0.2341,-0.2342,-0.2342,-0.2405,-0.2406,-0.2408,0,0,0,0,0,0,-0.2304,-0.2312,-0.2366,-0.2337,-0.2343,-0.2343,-0.2362,-0.2361,-0.2368,-0.2358,-0.2355,-0.2363,-0.2349,-0.2349,-0.2374,-0.236,-0.2342,-0.2343,-0.2403,-0.2405,-0.2407,-0.2398,0,0,0,0,0,0,-0.2302,-0.2311,-0.2323,-0.2338,-0.2345,-0.2397,-0.2364,-0.2363,-0.2372,-0.2369,-0.2363,-0.2361,-0.2348,-0.2373,-0.2375,-0.2361,-0.2343,-0.2402,-0.2404,-0.2406,-0.2397,-0.24,-0.2402,0,0,0,0,0,-0.23,-0.2332,-0.2324,-0.2331,-0.2363,-0.2399,-0.2402,-0.2396,-0.2374,-0.2393,-0.2388,-0.2361,-0.2389,-0.2376,-0.2377,-0.2363,-0.24,-0.2403,-0.2406,-0.2396,-0.2399,-0.2402,0,0,0,0,0,0,-0.2296,-0.2333,-0.2325,-0.2364,-0.2382,-0.2395,-0.2412,-0.2403,-0.2415,-0.2411,-0.2388,-0.2387,-0.2399,-0.24,-0.2385,-0.2393,-0.2386,-0.239,-0.2378,-0.2381,-0.2384,-0.234,-0.2344,0,0,0,0,0,-0.2303,-0.2338,-0.2361,-0.2388,-0.2403,-0.2406,-0.2417,-0.2418,-0.2429,-0.2432,-0.2427,-0.2422,-0.2415,-0.2414,-0.2421,-0.2434,-0.2425,-0.2426,-0.2429,-0.2431,-0.24,-0.2362,-0.2356,-0.2418,-0.2418,-0.2417,0,0,-0.23,-0.2329,-0.2343,-0.2389,-0.2401,-0.242,-0.241,-0.2442,-0.2437,-0.2431,-0.2434,-0.2438,-0.2425,-0.2433,-0.2437,-0.2428,-0.2428,-0.2435,-0.2436,-0.2403,-0.2364,-0.2357,-0.2351,-0.242,-0.2419,-0.2419,0,0,-0.2319,-0.2349,-0.2381,-0.2404,-0.2438,-0.2444,-0.2455,-0.248,-0.2473,-0.2497,-0.2471,-0.2463,-0.2487,-0.2447,-0.2433,-0.2458,-0.2447,-0.2478,-0.2443,-0.2408,-0.2401,-0.2394,-0.2448,-0.2445,-0.2472,-0.2472,-0.2472,0,-0.231,-0.2347,-0.2393,-0.2424,-0.2424,-0.2452,-0.246,-0.2473,-0.2496,-0.2475,-0.2503,-0.248,-0.2476,-0.2421,-0.243,-0.2453,-0.2471,-0.2426,-0.2406,-0.2399,-0.2392,-0.2447,-0.2445,-0.2472,-0.2472,-0.2472,-0.2472,0,-0.2342,-0.2366,-0.239,-0.2426,-0.2443,-0.2465,-0.2481,-0.2492,-0.2494,-0.2488,-0.2468,-0.2473,-0.2443,-0.245,-0.2446,-0.2391,-0.2438,-0.2415,-0.2385,-0.2384,-0.2445,-0.2443,-0.2472,-0.2472,-0.2472,-0.2472,0,0,-0.2321,-0.2394,-0.2397,-0.239,-0.2439,-0.2446,-0.2451,-0.244,-0.2426,-0.2446,-0.2417,-0.2391,-0.239,-0.2373,-0.2367,-0.2335,-0.2333,-0.2359,-0.2357,-0.2391,-0.2327,-0.2289,-0.2284,-0.2307,-0.2305,-0.2303,-0.2415,0,-0.2313,-0.2344,-0.239,-0.2387,-0.2386,-0.2409,-0.2411,-0.2406,-0.2418,-0.2421,-0.2386,-0.2382,-0.2362,-0.2365,-0.2321,-0.2338,-0.2316,-0.2309,-0.234,-0.2342,-0.2286,-0.2273,-0.2118,-0.2195,-0.2413,-0.2412,-0.2412,0,-0.231,-0.2324,-0.2322,-0.2332,-0.2337,-0.2343,-0.2321,-0.2334,-0.234,-0.2357,-0.2328,-0.2346,-0.2304,-0.2306,-0.2274,-0.2281,-0.2288,-0.2299,-0.2303,-0.2248,-0.2293,-0.2218,-0.2182,-0.2157,-0.2408,-0.2409,-0.2409,0,-0.2226,-0.2264,-0.2246,-0.2251,-0.2286,-0.2267,-0.2276,-0.2288,-0.2305,-0.231,-0.2352,-0.2302,-0.2326,-0.2282,-0.2312,-0.2297,-0.2317,-0.2298,-0.2269,-0.2273,-0.2131,-0.2122,-0.2034,-0.2243,-0.2242,-0.2242,-0.2242,0,-0.2183,-0.2167,-0.2201,-0.2188,-0.216,-0.2201,-0.2193,-0.2202,-0.2256,-0.2274,-0.2306,-0.2319,-0.2317,-0.2344,-0.2327,-0.2309,-0.2322,-0.2249,-0.2265,-0.2136,-0.2127,-0.2089,-0.2113,-0.2246,-0.2245,-0.2244,-0.2244,0,-0.2086,-0.2131,-0.2098,-0.2113,-0.2122,-0.2087,-0.2153,-0.2174,-0.223,-0.2265,-0.2276,-0.2351,-0.2353,-0.2382,-0.2369,-0.2349,-0.2274,-0.231,-0.221,-0.2207,-0.2103,-0.2133,-0.2077,-0.2023,-0.2276,-0.2275,-0.2275,0,-0.2036,-0.2004,-0.2012,-0.2016,-0.2023,-0.2016,-0.2049,-0.2124,-0.2166,-0.2257,-0.2278,-0.2329,-0.231,-0.2339,-0.2288,-0.2267,-0.224,-0.2157,-0.2039,-0.2054,-0.2101,-0.2124,-0.2083,-0.1908,-0.1904,-0.1901,-0.1899,0,-0.1899,-0.1904,-0.1893,-0.189,-0.1913,-0.1931,-0.1974,-0.2012,-0.2109,-0.2155,-0.2179,-0.2171,-0.2205,-0.21,-0.2126,-0.2078,-0.2067,-0.2093,-0.2089,-0.1771,-0.1803,-0.1773,-0.197,-0.1872,-0.1875,-0.1877,-0.1878,-0.1879,-0.1782,-0.1738,-0.1736,-0.173,-0.1776,-0.1789,-0.1762,-0.1851,-0.1872,-0.1897,-0.1993,-0.1957,-0.1949,-0.1908,-0.1892,-0.1805,-0.1865,-0.1721,-0.1764,-0.1794,-0.1676,-0.1856,-0.1772,-0.1774,-0.1775,-0.1777,-0.1778,0,-0.1597,-0.1584,-0.1581,-0.157,-0.1572,-0.1633,-0.1679,-0.1646,-0.1617,-0.1699,-0.1685,-0.1677,-0.159,-0.161,-0.156,-0.1507,-0.1464,-0.1478,-0.1441,-0.1417,-0.1538,-0.145,-0.131,-0.131,-0.131,-0.131,-0.131,-0.131,-0.1494,-0.1428,-0.1432,-0.1355,-0.1365,-0.1299,-0.1286,-0.1274,-0.1301,-0.1279,-0.1311,-0.1388,-0.1422,-0.1518,-0.1425,-0.135,-0.133,-0.1268,-0.1354,-0.141,-0.1435,-0.1459,-0.1378,-0.1224,-0.1224,-0.112,-0.1119,-0.1119]},{"header":{"parameterUnit":"m.s-1","parameterCategory":2,"la1":30.2991,"la2":30.254,"lo1":-89.0895,"lo2":-89.0444,"dy":0.0017,"dx":0.0017,"nx":28,"ny":28,"refTime":"2024-08-04T21:00:00:Z","depth":"0","parameterNumber":3,"parameterNumberName":"V-component_of_CURRENTS"},"data":[0,0,0,0,0,0,0,0,0,0,0,0,0,0,0,0,0,0,0,0,0,0,0,0,0,0,0,0,0,0,0,0,0,0,0,0,0,0,0,0,0,0,0,0,0,0,0,0,0,0,0,0,0,0,0,0,0,0,-0.1147,-0.1145,0,-0.096,-0.0958,-0.0955,-0.0848,-0.0848,-0.0848,-0.0848,-0.061,-0.0604,-0.0598,0,0,0,0,0,0,0,0,0,0,0,0,0,-0.1244,-0.1244,-0.1147,-0.1145,-0.1143,-0.096,-0.0957,-0.0955,-0.0848,-0.0848,-0.0848,-0.0848,-0.0612,-0.0605,-0.0597,0,0,0,0,0,0,0,0,0,0,0,0,0,-0.1142,-0.1244,-0.1147,-0.107,-0.1061,-0.0961,-0.0957,-0.0954,-0.0848,-0.0848,-0.0848,-0.0848,-0.0614,-0.0605,-0.0596,-0.0543,0,0,-0.0568,-0.0564,0,0,0,0,0,0,0,0,-0.1148,-0.1138,-0.1083,-0.1075,-0.1065,-0.093,-0.0905,-0.0815,-0.0848,-0.0926,-0.0848,-0.0847,-0.0714,-0.0697,-0.0659,-0.0532,-0.0521,-0.0567,-0.0561,-0.0557,-0.0555,0,0,0,0,0,0,0,-0.1156,-0.1145,-0.107,-0.1081,-0.107,-0.0987,-0.0974,-0.0886,-0.082,-0.0919,-0.0912,-0.0895,-0.0708,-0.0668,-0.0652,-0.0518,-0.0567,-0.0559,-0.0553,-0.055,-0.0244,-0.0242,0,0,0,0,0,0,-0.1194,-0.1153,-0.1076,-0.1065,-0.111,-0.0987,-0.0971,-0.0971,-0.0822,-0.08,-0.0896,-0.0891,-0.0684,-0.0663,-0.0643,-0.05,-0.0557,-0.0549,-0.0543,-0.0247,-0.0244,-0.0241,0,0,0,0,0,0,-0.1197,-0.1189,-0.1084,-0.1105,-0.1086,-0.0987,-0.0986,-0.0967,-0.0924,-0.0805,-0.0782,-0.0873,-0.0683,-0.0656,-0.0542,-0.0493,-0.0544,-0.0536,-0.025,-0.0246,-0.0242,-0.0259,0,0,0,0,0,0,-0.1201,-0.1192,-0.1195,-0.1109,-0.1087,-0.1016,-0.0986,-0.0964,-0.0916,-0.0908,-0.0778,-0.0755,-0.0681,-0.0557,-0.0533,-0.0481,-0.0529,-0.0253,-0.0248,-0.0243,-0.0261,-0.0256,-0.0251,0,0,0,0,0,-0.1205,-0.1199,-0.1196,-0.1186,-0.1098,-0.1016,-0.0995,-0.0921,-0.0916,-0.0885,-0.0793,-0.0759,-0.051,-0.0547,-0.052,-0.0464,-0.0255,-0.0249,-0.0244,-0.0264,-0.0257,-0.0251,0,0,0,0,0,0,-0.1227,-0.1185,-0.1181,-0.116,-0.1097,-0.0998,-0.0953,-0.0928,-0.0833,-0.0819,-0.0728,-0.0697,-0.0578,-0.052,-0.0565,-0.036,-0.0376,-0.0365,-0.04,-0.0393,-0.0388,-0.0405,-0.0521,0,0,0,0,0,-0.1244,-0.1236,-0.1176,-0.1157,-0.1125,-0.1049,-0.1007,-0.0964,-0.0876,-0.0835,-0.0748,-0.0642,-0.0532,-0.0468,-0.0368,-0.026,-0.0244,-0.0205,-0.02,-0.0196,-0.0189,-0.0145,-0.0137,-0.0222,-0.0222,-0.0222,0,0,-0.1249,-0.1223,-0.1219,-0.1162,-0.1101,-0.1027,-0.102,-0.0951,-0.0881,-0.0822,-0.0696,-0.0625,-0.0502,-0.0372,-0.0314,-0.0317,-0.0161,-0.0189,-0.0187,-0.0181,-0.0139,-0.0131,-0.0124,-0.0218,-0.0219,-0.022,0,0,-0.1226,-0.1228,-0.1198,-0.1142,-0.1065,-0.1013,-0.1003,-0.0909,-0.0857,-0.0746,-0.0679,-0.0585,-0.0422,-0.0321,-0.025,-0.0159,-0.0144,-0.0128,-0.0103,-0.0061,-0.0054,-0.0049,-0.0025,-0.0017,-0.0117,-0.0117,-0.0117,0,-0.1225,-0.1187,-0.1171,-0.1105,-0.1046,-0.1011,-0.0936,-0.087,-0.0753,-0.0708,-0.0701,-0.048,-0.0387,-0.023,-0.0188,-0.0147,-0.0138,-0.0142,-0.0059,-0.0053,-0.0047,-0.0024,-0.0015,-0.0117,-0.0117,-0.0117,-0.0117,0,-0.1169,-0.1122,-0.1087,-0.1004,-0.0945,-0.0874,-0.0794,-0.0739,-0.0694,-0.0632,-0.0503,-0.0393,-0.027,-0.0219,-0.0164,-0.006,-0.0073,-0.0073,-0.0089,-0.004,-0.0018,-0.0008,-0.0117,-0.0117,-0.0117,-0.0117,0,0,-0.1186,-0.1074,-0.1058,-0.1,-0.0886,-0.0833,-0.0727,-0.0625,-0.0581,-0.0477,-0.0404,-0.0221,-0.0216,-0.0136,-0.0077,-0.0026,0.0028,-0.0032,-0.003,-0.0035,0.0099,0.0117,0.0128,0.0025,0.0027,0.0029,0.0093,0,-0.1131,-0.102,-0.0971,-0.0842,-0.0765,-0.0703,-0.0619,-0.0533,-0.0471,-0.04,-0.0303,-0.0211,-0.0167,-0.0133,-0.0068,0.0002,0.0053,0.0009,0.0077,0.0079,0.0067,0.0141,0.0152,0.0212,0.0102,0.0104,0.0105,0,-0.1074,-0.1005,-0.0889,-0.0768,-0.0733,-0.0666,-0.0564,-0.0485,-0.0387,-0.0347,-0.0262,-0.0212,-0.0092,-0.0097,0.005,0.001,0.0061,0.0103,0.0106,0.0136,0.0116,0.0152,0.0234,0.0365,0.0119,0.0118,0.0117,0,-0.1083,-0.0941,-0.086,-0.0808,-0.0674,-0.0627,-0.057,-0.0474,-0.0433,-0.0339,-0.0325,-0.0186,-0.0139,-0.0045,0.006,0.0047,0.0182,0.0174,0.0241,0.0241,0.0275,0.0276,0.0473,0.0267,0.0267,0.0266,0.0266,0,-0.1029,-0.0952,-0.0869,-0.0811,-0.0741,-0.0646,-0.0587,-0.0523,-0.0458,-0.0427,-0.0322,-0.0287,-0.0132,-0.0038,0.0055,0.0185,0.0185,0.0265,0.0273,0.0271,0.0271,0.0406,0.0456,0.0269,0.0268,0.0268,0.0267,0,-0.1012,-0.0959,-0.086,-0.0753,-0.0736,-0.0688,-0.0626,-0.0601,-0.0535,-0.0503,-0.0483,-0.0356,-0.0232,-0.008,0.0077,0.0173,0.0373,0.0333,0.0316,0.0322,0.0507,0.0554,0.0743,0.0816,0.0425,0.0426,0.0427,0,-0.0978,-0.0926,-0.0851,-0.0843,-0.0795,-0.0741,-0.0726,-0.065,-0.0636,-0.0554,-0.0549,-0.0421,-0.0333,-0.0079,0.0122,0.031,0.0411,0.0432,0.0432,0.0548,0.0606,0.0634,0.0683,0.0465,0.0466,0.0467,0.0468,0,-0.0901,-0.0898,-0.0848,-0.0854,-0.0843,-0.082,-0.0793,-0.0799,-0.0729,-0.0711,-0.0662,-0.0589,-0.0328,-0.0085,0.019,0.0301,0.0534,0.0455,0.0594,0.0685,0.0712,0.0774,0.0375,0.0476,0.0475,0.0474,0.0474,0.0474,-0.0862,-0.0851,-0.0842,-0.085,-0.0864,-0.089,-0.0885,-0.0884,-0.0877,-0.0842,-0.0758,-0.0633,-0.0243,0.0149,0.03,0.0636,0.0601,0.0722,0.0775,0.0797,0.0869,0.0484,0.0581,0.0581,0.0581,0.0581,0.0581,0,-0.08,-0.0826,-0.0842,-0.0863,-0.0907,-0.0905,-0.0924,-0.093,-0.0948,-0.0893,-0.0835,-0.0445,-0.0069,0.031,0.0789,0.096,0.0999,0.1037,0.1096,0.1135,0.0817,0.0822,0.0954,0.0954,0.0953,0.0953,0.0953,0.0953,-0.0769,-0.0786,-0.0821,-0.0893,-0.0927,-0.0963,-0.0977,-0.1003,-0.0962,-0.0846,-0.0654,-0.0477,0.0088,0.0843,0.1275,0.1301,0.1459,0.1415,0.1512,0.1304,0.1279,0.1255,0.1275,0.15,0.1501,0.181,0.1813,0.1815]}],[{"header":{"parameterUnit":"m.s-1","parameterCategory":2,"la1":30.2991,"la2":30.254,"lo1":-89.0895,"lo2":-89.0444,"dy":0.0017,"dx":0.0017,"nx":28,"ny":28,"refTime":"2024-08-04T21:00:00:Z","depth":"2","parameterNumber":2,"parameterNumberName":"U-component_of_CURRENTS"},"data":[0,0,0,0,0,0,0,0,0,0,0,0,0,0,0,0,0,0,0,0,0,0,0,0,0,0,0,0,0,0,0,0,0,0,0,0,0,0,0,0,0,0,0,0,0,0,0,0,0,0,0,0,0,0,0,0,0,0,-0.2456,-0.2457,0,-0.2525,-0.2526,-0.2527,-0.2479,-0.2477,-0.2475,-0.2473,-0.2386,-0.2385,-0.2385,0,0,0,0,0,0,0,0,0,0,0,0,0,-0.2253,-0.2257,-0.2456,-0.2457,-0.2458,-0.2525,-0.2526,-0.2527,-0.248,-0.2477,-0.2474,-0.2472,-0.2386,-0.2385,-0.2385,0,0,0,0,0,0,0,0,0,0,0,0,0,-0.2333,-0.2259,-0.2456,-0.2443,-0.2442,-0.2525,-0.2526,-0.2527,-0.248,-0.2477,-0.2474,-0.2471,-0.2386,-0.2385,-0.2385,-0.2445,0,0,-0.2383,-0.2383,0,0,0,0,0,0,0,0,-0.2329,-0.2341,-0.2444,-0.2444,-0.2443,-0.2491,-0.2422,-0.2492,-0.2481,-0.2465,-0.2473,-0.2469,-0.2409,-0.2407,-0.2428,-0.2441,-0.2437,-0.2383,-0.2383,-0.2383,-0.2382,0,0,0,0,0,0,0,-0.2323,-0.2337,-0.2483,-0.2445,-0.2445,-0.2423,-0.2431,-0.2436,-0.2451,-0.2466,-0.2463,-0.2473,-0.2407,-0.2429,-0.2425,-0.2435,-0.2383,-0.2383,-0.2382,-0.2382,-0.2409,-0.241,0,0,0,0,0,0,-0.2322,-0.2333,-0.2481,-0.2485,-0.2378,-0.2429,-0.2438,-0.2478,-0.2454,-0.2449,-0.2475,-0.247,-0.2431,-0.2426,-0.2422,-0.2396,-0.2383,-0.2382,-0.2382,-0.2408,-0.2409,-0.241,0,0,0,0,0,0,-0.2318,-0.2336,-0.2478,-0.2408,-0.2425,-0.2437,-0.2481,-0.2481,-0.2477,-0.2463,-0.2453,-0.2468,-0.2429,-0.2422,-0.2406,-0.2395,-0.2382,-0.2381,-0.2406,-0.2408,-0.2409,-0.2404,0,0,0,0,0,0,-0.2313,-0.2335,-0.236,-0.241,-0.2429,-0.2504,-0.2485,-0.2485,-0.249,-0.2483,-0.2454,-0.2444,-0.2426,-0.2407,-0.2405,-0.2394,-0.2381,-0.2405,-0.2407,-0.2409,-0.2403,-0.2406,-0.2408,0,0,0,0,0,-0.2306,-0.235,-0.2362,-0.2379,-0.2466,-0.2504,-0.2511,-0.2507,-0.2492,-0.2492,-0.2473,-0.2444,-0.2417,-0.2408,-0.2405,-0.2393,-0.2404,-0.2406,-0.2409,-0.2402,-0.2405,-0.2408,0,0,0,0,0,0,-0.2271,-0.2352,-0.2364,-0.2431,-0.2454,-0.2495,-0.2509,-0.2506,-0.25,-0.2491,-0.2461,-0.2451,-0.2433,-0.2428,-0.2417,-0.2411,-0.2406,-0.2408,-0.2401,-0.2404,-0.2406,-0.2365,-0.2381,0,0,0,0,0,-0.2282,-0.234,-0.239,-0.2441,-0.2457,-0.2483,-0.2498,-0.2499,-0.2506,-0.25,-0.2481,-0.2466,-0.2453,-0.2435,-0.2432,-0.2433,-0.2423,-0.2426,-0.2428,-0.2429,-0.2398,-0.2363,-0.2358,-0.2418,-0.2418,-0.2417,0,0,-0.2278,-0.2336,-0.2364,-0.2438,-0.2464,-0.2482,-0.2483,-0.2512,-0.2506,-0.2493,-0.2478,-0.2475,-0.2458,-0.2452,-0.2443,-0.2434,-0.2426,-0.2432,-0.2433,-0.24,-0.2365,-0.2358,-0.2353,-0.2419,-0.2419,-0.2419,0,0,-0.2298,-0.2358,-0.24,-0.2424,-0.247,-0.2487,-0.2488,-0.2522,-0.2511,-0.2523,-0.2499,-0.2475,-0.2487,-0.2446,-0.2434,-0.2448,-0.2443,-0.2469,-0.2434,-0.2402,-0.2395,-0.2389,-0.2438,-0.2436,-0.2463,-0.2463,-0.2463,0,-0.2288,-0.235,-0.241,-0.2445,-0.2448,-0.2481,-0.2484,-0.2501,-0.2516,-0.2495,-0.2512,-0.249,-0.2473,-0.2421,-0.2426,-0.2444,-0.2462,-0.2421,-0.24,-0.2393,-0.2387,-0.2438,-0.2436,-0.2463,-0.2463,-0.2463,-0.2463,0,-0.2325,-0.2362,-0.2386,-0.2439,-0.2452,-0.2468,-0.2488,-0.2488,-0.2493,-0.2496,-0.2467,-0.2463,-0.2432,-0.2439,-0.2436,-0.2383,-0.2429,-0.241,-0.2383,-0.238,-0.2436,-0.2434,-0.2463,-0.2463,-0.2463,-0.2463,0,0,-0.2319,-0.2394,-0.2396,-0.2392,-0.244,-0.2446,-0.2447,-0.2434,-0.2425,-0.2436,-0.2413,-0.2382,-0.238,-0.2364,-0.2359,-0.2329,-0.2327,-0.2353,-0.2352,-0.2385,-0.2325,-0.2247,-0.2238,-0.2308,-0.2306,-0.2305,-0.2407,0,-0.231,-0.234,-0.2389,-0.2381,-0.2375,-0.2399,-0.24,-0.2395,-0.2408,-0.2409,-0.2378,-0.2374,-0.2354,-0.2358,-0.2316,-0.2333,-0.231,-0.2305,-0.2336,-0.2338,-0.2251,-0.2226,-0.2042,-0.2104,-0.2404,-0.2404,-0.2404,0,-0.2309,-0.2321,-0.2312,-0.2321,-0.2324,-0.2327,-0.2307,-0.2319,-0.2329,-0.2347,-0.2322,-0.2341,-0.2299,-0.2301,-0.2271,-0.2279,-0.2284,-0.2295,-0.2299,-0.2206,-0.2249,-0.2144,-0.2088,-0.2399,-0.24,-0.24,-0.24,0,-0.2223,-0.2255,-0.2232,-0.2236,-0.2268,-0.225,-0.2257,-0.2273,-0.2292,-0.2301,-0.2344,-0.2298,-0.232,-0.228,-0.2298,-0.2294,-0.2299,-0.2298,-0.223,-0.2231,-0.2062,-0.2047,-0.2241,-0.2241,-0.2241,-0.224,-0.224,0,-0.2178,-0.2156,-0.2185,-0.217,-0.2137,-0.2181,-0.2174,-0.2184,-0.2242,-0.2255,-0.2297,-0.2299,-0.2313,-0.233,-0.2312,-0.2269,-0.2302,-0.2204,-0.2217,-0.2066,-0.2051,-0.228,-0.2283,-0.2244,-0.2244,-0.2243,-0.2242,0,-0.208,-0.2121,-0.2084,-0.2093,-0.2101,-0.2064,-0.213,-0.215,-0.2212,-0.2243,-0.2254,-0.2323,-0.2311,-0.2344,-0.2327,-0.2298,-0.2261,-0.2233,-0.2098,-0.2087,-0.223,-0.2233,-0.2172,-0.217,-0.2167,-0.2165,-0.2164,0,-0.203,-0.1997,-0.1997,-0.1996,-0.1999,-0.199,-0.2019,-0.2098,-0.2132,-0.2217,-0.2225,-0.2268,-0.2232,-0.2237,-0.2175,-0.2147,-0.2197,-0.1985,-0.1882,-0.2186,-0.2207,-0.2213,-0.2219,-0.1719,-0.1714,-0.171,-0.1706,0,-0.1892,-0.1897,-0.188,-0.1863,-0.188,-0.1891,-0.1922,-0.1949,-0.2044,-0.2087,-0.2081,-0.2064,-0.208,-0.1941,-0.1949,-0.189,-0.197,-0.1896,-0.2219,-0.1743,-0.1759,-0.178,-0.18,-0.1669,-0.1673,-0.1676,-0.1678,-0.1679,-0.1776,-0.1727,-0.1717,-0.1698,-0.1734,-0.1724,-0.1689,-0.176,-0.1765,-0.1783,-0.1856,-0.1805,-0.1826,-0.1694,-0.162,-0.1588,-0.1712,-0.1647,-0.166,-0.1677,-0.1583,-0.159,-0.1459,-0.1461,-0.1464,-0.1465,-0.1467,0,-0.159,-0.1568,-0.1553,-0.1522,-0.1506,-0.1567,-0.1588,-0.1549,-0.1496,-0.1566,-0.1545,-0.1404,-0.1328,-0.136,-0.1246,-0.124,-0.1228,-0.1187,-0.1166,-0.1203,-0.1236,-0.112,-0.0873,-0.0871,-0.087,-0.0868,0,0,-0.1485,-0.1409,-0.1405,-0.1291,-0.1286,-0.1208,-0.1182,-0.1162,-0.1183,-0.1131,-0.1134,-0.1251,-0.1312,-0.1093,-0.1041,-0.0939,-0.1059,-0.0887,-0.136,-0.1371,-0.1402,-0.1494,-0.1354,0,0,0,0,0]},{"header":{"parameterUnit":"m.s-1","parameterCategory":2,"la1":30.2991,"la2":30.254,"lo1":-89.0895,"lo2":-89.0444,"dy":0.0017,"dx":0.0017,"nx":28,"ny":28,"refTime":"2024-08-04T21:00:00:Z","depth":"2","parameterNumber":3,"parameterNumberName":"V-component_of_CURRENTS"},"data":[0,0,0,0,0,0,0,0,0,0,0,0,0,0,0,0,0,0,0,0,0,0,0,0,0,0,0,0,0,0,0,0,0,0,0,0,0,0,0,0,0,0,0,0,0,0,0,0,0,0,0,0,0,0,0,0,0,0,0.0048,0.0048,0,0.0054,0.0053,0.0053,0.0015,0.0014,0.0014,0.0013,0.0002,0.0003,0.0003,0,0,0,0,0,0,0,0,0,0,0,0,0,0.0139,0.0136,0.0048,0.0048,0.0049,0.0054,0.0053,0.0053,0.0015,0.0014,0.0013,0.0012,0.0002,0.0003,0.0003,0,0,0,0,0,0,0,0,0,0,0,0,0,0.0114,0.0135,0.0048,0.0032,0.0031,0.0054,0.0053,0.0053,0.0016,0.0014,0.0013,0.0012,0.0002,0.0002,0.0003,0.0033,0,0,0.0005,0.0006,0,0,0,0,0,0,0,0,0.0116,0.0111,0.0034,0.0034,0.0032,0.0035,0.0082,0.0046,0.0016,0.0019,0.0013,0.0011,0.0014,0.0014,0.0014,0.0032,0.0032,0.0006,0.0006,0.0006,0.0006,0,0,0,0,0,0,0,0.0117,0.0111,0.0048,0.0035,0.0034,0.0071,0.0065,0.0075,0.0021,0.0018,0.0016,0.0022,0.0013,0.0014,0.0014,0.0032,0.0006,0.0006,0.0007,0.0007,0.0042,0.0042,0,0,0,0,0,0,0.0116,0.0112,0.0047,0.0048,0.0075,0.007,0.0063,0.0033,0.0021,0.0019,0.0023,0.002,0.0013,0.0013,0.0013,0.0006,0.0006,0.0007,0.0007,0.0041,0.0042,0.0042,0,0,0,0,0,0,0.0117,0.0108,0.0047,0.0085,0.008,0.0069,0.0037,0.0034,-0.001,0.0025,0.0022,-0.0023,0.0012,0.0012,-0.0025,0.0007,0.0007,0.0008,0.0041,0.0042,0.0042,0.0018,0,0,0,0,0,0,0.0119,0.0108,0.005,0.0083,0.0078,-0.0009,0.0038,0.0035,-0.0001,-0.0006,-0.0014,-0.0014,0.0011,-0.0027,-0.0025,0.0008,0.0009,0.004,0.0041,0.0042,0.0018,0.0018,0.0018,0,0,0,0,0,0.0121,0.003,0.0046,0.0037,0.0008,-0.0012,-0.0015,-0.0023,-0.0002,-0.0059,-0.0043,-0.0016,-0.0017,-0.0028,-0.0025,0.0009,0.004,0.0041,0.0042,0.0019,0.0018,0.0018,0,0,0,0,0,0,0.0012,0.002,0.0037,-0.0055,-0.0054,-0.0019,-0.0071,-0.0048,-0.0077,-0.008,-0.0039,-0.004,-0.0047,-0.0028,-0.004,0.0024,0.0029,0.003,0.001,0.001,0.001,0.0017,0.0009,0,0,0,0,0,-0.0025,-0.0089,-0.0055,-0.0138,-0.0133,-0.0099,-0.0115,-0.0106,-0.0102,-0.0118,-0.0103,-0.0071,-0.0029,-0.0027,-0.0009,0.0003,0.0031,0.0037,0.0036,0.0036,0.0045,0.0097,0.0102,0.0046,0.0046,0.0046,0,0,-0.0099,-0.0096,-0.0142,-0.0164,-0.0154,-0.0143,-0.0117,-0.0154,-0.0135,-0.011,-0.0117,-0.0092,-0.0032,-0.001,-0.0007,0.0001,0.0065,0.0037,0.0036,0.0046,0.0098,0.0104,0.0109,0.0047,0.0047,0.0047,0,0,-0.0223,-0.0258,-0.0319,-0.0303,-0.0288,-0.0243,-0.0259,-0.023,-0.0223,-0.0219,-0.0164,-0.0136,-0.0105,-0.0036,0.0007,0.0013,0.0053,0.0028,0.004,0.0089,0.0094,0.0099,0.0131,0.0139,0.0037,0.0037,0.0037,0,-0.0311,-0.0343,-0.0348,-0.0354,-0.0323,-0.0282,-0.0277,-0.0261,-0.0249,-0.0219,-0.0238,-0.0128,-0.0096,0.0002,0.0015,0.0017,0.0036,0.0035,0.0089,0.0094,0.01,0.0131,0.014,0.0036,0.0036,0.0037,0.0037,0,-0.0414,-0.0433,-0.0464,-0.0429,-0.0421,-0.0423,-0.0349,-0.035,-0.0308,-0.0255,-0.0202,-0.0157,-0.008,-0.005,-0.0013,0.0069,0.0065,0.0073,0.0087,0.0104,0.0136,0.0146,0.0035,0.0035,0.0036,0.0036,0,0,-0.0582,-0.0544,-0.0539,-0.05,-0.0435,-0.0425,-0.0389,-0.0317,-0.0277,-0.0253,-0.019,-0.0099,-0.0069,-0.0017,0.0038,0.0089,0.0143,0.0095,0.0098,0.0122,0.0235,0.0233,0.0243,0.0152,0.0153,0.0155,0.0237,0,-0.0632,-0.0631,-0.059,-0.0555,-0.0525,-0.0446,-0.0406,-0.0344,-0.029,-0.024,-0.0148,-0.0091,-0.0052,-0.0021,0.0042,0.0117,0.017,0.012,0.022,0.0223,0.0216,0.0256,0.0239,0.0311,0.0247,0.0249,0.025,0,-0.0697,-0.0667,-0.0643,-0.055,-0.0531,-0.0505,-0.0396,-0.0361,-0.0269,-0.0235,-0.0156,-0.0102,0.0007,0.001,0.0158,0.0117,0.0179,0.0227,0.0231,0.0249,0.0241,0.0288,0.0331,0.0267,0.0265,0.0264,0.0263,0,-0.0735,-0.0687,-0.0652,-0.062,-0.0531,-0.05,-0.0448,-0.0361,-0.0329,-0.0236,-0.0218,-0.0087,-0.0036,0.0065,0.0175,0.0165,0.031,0.031,0.037,0.0369,0.0387,0.0386,0.041,0.041,0.041,0.041,0.0409,0,-0.0759,-0.0725,-0.067,-0.0641,-0.0597,-0.0529,-0.0484,-0.0426,-0.0361,-0.0331,-0.0224,-0.0188,-0.0025,0.0075,0.0174,0.0305,0.0317,0.0386,0.0401,0.0376,0.0373,0.036,0.0354,0.0413,0.0412,0.0411,0.0411,0,-0.0785,-0.0758,-0.0711,-0.0631,-0.0617,-0.0583,-0.0526,-0.0504,-0.044,-0.0405,-0.0383,-0.0252,-0.0124,0.0033,0.0202,0.0296,0.0421,0.0461,0.0413,0.0422,0.0445,0.0436,0.0543,0.0544,0.0545,0.0545,0.0546,0,-0.0785,-0.0769,-0.0715,-0.0713,-0.0678,-0.0637,-0.0625,-0.0553,-0.0537,-0.0456,-0.0447,-0.0315,-0.0221,0.0037,0.0228,0.0419,0.0427,0.0515,0.0507,0.0461,0.0464,0.0454,0.0444,0.0518,0.0518,0.0518,0.0518,0,-0.0757,-0.0755,-0.0723,-0.0736,-0.0731,-0.0713,-0.0689,-0.0691,-0.0623,-0.0598,-0.0538,-0.0459,-0.0209,0.0016,0.0277,0.0383,0.0486,0.0523,0.0513,0.0477,0.0441,0.0442,0.0433,0.052,0.052,0.052,0.052,0.052,-0.0733,-0.0728,-0.0729,-0.0741,-0.0756,-0.0775,-0.0767,-0.0759,-0.0743,-0.0687,-0.0607,-0.0463,-0.023,0.0137,0.0318,0.05,0.0493,0.056,0.0558,0.0556,0.0529,0.0495,0.0579,0.0579,0.0579,0.0579,0.0579,0,-0.069,-0.0714,-0.0734,-0.0754,-0.0789,-0.079,-0.08,-0.0796,-0.0792,-0.0715,-0.0636,-0.0392,-0.012,0.0118,0.0404,0.0566,0.0559,0.0594,0.0566,0.0563,0.0561,0.0533,0.0585,0.0586,0.0586,0.0587,0,0,-0.0669,-0.069,-0.0719,-0.0775,-0.0801,-0.0826,-0.0832,-0.0838,-0.0783,-0.0728,-0.0606,-0.0406,-0.0108,0.01,0.0309,0.0461,0.0465,0.0468,0.0447,0.0387,0.0383,0.0528,0.048,0,0,0,0,0]}],[{"header":{"parameterUnit":"m.s-1","parameterCategory":2,"la1":30.2991,"la2":30.254,"lo1":-89.0895,"lo2":-89.0444,"dy":0.0017,"dx":0.0017,"nx":28,"ny":28,"refTime":"2024-08-04T21:00:00:Z","depth":"4","parameterNumber":2,"parameterNumberName":"U-component_of_CURRENTS"},"data":[0,0,0,0,0,0,0,0,0,0,0,0,0,0,0,0,0,0,0,0,0,0,0,0,0,0,0,0,0,0,0,0,0,0,0,0,0,0,0,0,0,0,0,0,0,0,0,0,0,0,0,0,0,0,0,0,0,0,-0.0981,-0.0982,0,-0.1067,-0.1068,-0.1069,-0.1113,-0.1113,-0.1113,-0.1113,-0.1186,-0.1187,-0.1189,0,0,0,0,0,0,0,0,0,0,0,0,0,-0.0927,-0.0927,-0.0981,-0.0982,-0.0983,-0.1067,-0.1068,-0.1069,-0.1113,-0.1113,-0.1113,-0.1114,-0.1185,-0.1187,-0.1189,0,0,0,0,0,0,0,0,0,0,0,0,0,-0.0974,-0.0927,-0.0981,-0.1016,-0.102,-0.1067,-0.1068,-0.1069,-0.1113,-0.1113,-0.1113,-0.1114,-0.1184,-0.1187,-0.119,-0.1203,0,0,-0.1198,-0.1199,0,0,0,0,0,0,0,0,-0.0971,-0.0976,-0.1009,-0.1013,-0.1018,-0.108,-0.1075,-0.1114,-0.1113,-0.1077,-0.1113,-0.1114,-0.1149,-0.1155,-0.117,-0.1207,-0.121,-0.1198,-0.12,-0.1201,-0.1202,0,0,0,0,0,0,0,-0.0968,-0.0973,-0.1014,-0.1011,-0.1016,-0.1052,-0.1058,-0.1083,-0.111,-0.108,-0.1084,-0.1094,-0.1151,-0.1167,-0.1172,-0.1211,-0.1198,-0.1201,-0.1202,-0.1203,-0.1272,-0.1272,0,0,0,0,0,0,-0.0955,-0.0969,-0.1012,-0.1017,-0.0995,-0.1052,-0.1059,-0.1059,-0.1111,-0.1119,-0.1094,-0.1096,-0.1163,-0.1169,-0.1175,-0.1258,-0.1201,-0.1204,-0.1205,-0.1272,-0.1272,-0.1273,0,0,0,0,0,0,-0.0953,-0.0957,-0.1008,-0.0997,-0.1006,-0.1053,-0.1053,-0.1061,-0.109,-0.1121,-0.1129,-0.1116,-0.1163,-0.1171,-0.121,-0.1259,-0.1205,-0.1207,-0.1272,-0.1272,-0.1272,-0.1384,0,0,0,0,0,0,-0.0951,-0.0956,-0.0954,-0.0995,-0.1006,-0.1035,-0.1053,-0.1063,-0.1096,-0.1099,-0.1142,-0.1149,-0.1164,-0.1206,-0.1213,-0.1262,-0.1209,-0.1272,-0.1272,-0.1272,-0.138,-0.1388,-0.1395,0,0,0,0,0,-0.0948,-0.094,-0.0953,-0.0959,-0.1001,-0.1036,-0.1044,-0.1079,-0.1097,-0.1106,-0.1142,-0.1148,-0.1212,-0.1209,-0.1217,-0.1268,-0.1271,-0.1272,-0.1272,-0.1377,-0.1386,-0.1395,0,0,0,0,0,0,-0.0918,-0.0945,-0.096,-0.0962,-0.0998,-0.1043,-0.1064,-0.1085,-0.1123,-0.114,-0.1161,-0.117,-0.1224,-0.1213,-0.1208,-0.1279,-0.1239,-0.1241,-0.1315,-0.1324,-0.1332,-0.132,-0.1212,0,0,0,0,0,-0.0909,-0.0909,-0.095,-0.0953,-0.0977,-0.1024,-0.1046,-0.1075,-0.1112,-0.113,-0.1161,-0.1191,-0.1229,-0.125,-0.1273,-0.1316,-0.1286,-0.1344,-0.1352,-0.1358,-0.1349,-0.136,-0.1369,-0.1274,-0.1274,-0.1274,0,0,-0.0896,-0.0914,-0.0913,-0.0946,-0.0986,-0.1017,-0.1038,-0.1083,-0.1127,-0.1132,-0.12,-0.1224,-0.1243,-0.13,-0.1321,-0.1302,-0.1365,-0.1359,-0.1366,-0.1352,-0.1362,-0.1371,-0.138,-0.1274,-0.1274,-0.1274,0,0,-0.0895,-0.0897,-0.0915,-0.095,-0.101,-0.1022,-0.1036,-0.1097,-0.1147,-0.121,-0.123,-0.1274,-0.1326,-0.1355,-0.1376,-0.1427,-0.1406,-0.1434,-0.1474,-0.1487,-0.1495,-0.1503,-0.1465,-0.1468,-0.1439,-0.1439,-0.1439,0,-0.0885,-0.0922,-0.0926,-0.0972,-0.1006,-0.1024,-0.107,-0.1114,-0.1179,-0.122,-0.124,-0.1322,-0.1355,-0.1416,-0.1449,-0.1451,-0.1431,-0.1453,-0.15,-0.1507,-0.1512,-0.1472,-0.1474,-0.1444,-0.1444,-0.1443,-0.1443,0,-0.0904,-0.0959,-0.098,-0.1027,-0.1041,-0.1093,-0.1141,-0.1148,-0.1199,-0.1269,-0.1357,-0.1405,-0.1446,-0.1475,-0.1497,-0.1552,-0.1516,-0.1515,-0.1488,-0.1529,-0.1483,-0.1483,-0.1452,-0.145,-0.1448,-0.1447,0,0,-0.0839,-0.0973,-0.0984,-0.1021,-0.1094,-0.108,-0.1131,-0.1184,-0.122,-0.1307,-0.1377,-0.1477,-0.1518,-0.1538,-0.1567,-0.1591,-0.1637,-0.1583,-0.1581,-0.1561,-0.1632,-0.1595,-0.159,-0.1659,-0.166,-0.166,-0.1581,0,-0.0877,-0.0976,-0.1022,-0.1071,-0.1126,-0.113,-0.1204,-0.1239,-0.1278,-0.1337,-0.1422,-0.1527,-0.1546,-0.1597,-0.1621,-0.1629,-0.1644,-0.1656,-0.1579,-0.1575,-0.1552,-0.1592,-0.1663,-0.158,-0.158,-0.158,-0.158,0,-0.0898,-0.096,-0.1072,-0.1143,-0.1166,-0.1198,-0.1198,-0.1259,-0.1347,-0.1417,-0.1474,-0.154,-0.1606,-0.1629,-0.1641,-0.165,-0.1653,-0.165,-0.1647,-0.1571,-0.1539,-0.1529,-0.158,-0.158,-0.158,-0.158,-0.158,0,-0.0821,-0.0965,-0.1049,-0.1083,-0.1186,-0.1213,-0.1239,-0.1314,-0.1338,-0.1463,-0.1474,-0.1582,-0.1618,-0.1642,-0.1664,-0.1657,-0.1659,-0.1638,-0.159,-0.1584,-0.1592,-0.1585,-0.1651,-0.1651,-0.1651,-0.1652,-0.1652,0,-0.0833,-0.0874,-0.105,-0.1054,-0.1157,-0.1236,-0.1276,-0.1326,-0.1396,-0.1446,-0.1539,-0.1568,-0.1629,-0.1634,-0.1656,-0.1622,-0.1652,-0.1592,-0.1574,-0.1635,-0.1634,-0.1591,-0.1585,-0.1649,-0.1649,-0.165,-0.165,0,-0.0773,-0.0892,-0.0953,-0.1081,-0.1132,-0.1197,-0.1239,-0.1244,-0.1364,-0.1384,-0.1434,-0.152,-0.158,-0.1597,-0.1637,-0.1587,-0.1593,-0.1585,-0.1631,-0.1617,-0.149,-0.1491,-0.1464,-0.1463,-0.1461,-0.146,-0.1459,0,-0.0754,-0.082,-0.0927,-0.0963,-0.1043,-0.1128,-0.1182,-0.1256,-0.1238,-0.1361,-0.1366,-0.1451,-0.1519,-0.1491,-0.1572,-0.1573,-0.1583,-0.1529,-0.1523,-0.1492,-0.1477,-0.148,-0.1482,-0.1457,-0.1456,-0.1456,-0.1456,0,-0.0702,-0.0771,-0.0768,-0.0876,-0.0933,-0.0987,-0.1052,-0.1033,-0.1145,-0.1189,-0.1287,-0.1353,-0.1404,-0.1466,-0.1486,-0.1504,-0.1531,-0.1513,-0.1515,-0.1508,-0.1482,-0.147,-0.1474,-0.1451,-0.1451,-0.1452,-0.1452,0,-0.0603,-0.0642,-0.0662,-0.0749,-0.0804,-0.0896,-0.0923,-0.0952,-0.0965,-0.1111,-0.1161,-0.1314,-0.141,-0.1433,-0.1476,-0.1474,-0.1437,-0.1365,-0.1374,-0.138,-0.1401,-0.1359,-0.1273,0,0,0,0,0,-0.0529,-0.0551,-0.0559,-0.0624,-0.0662,-0.0756,-0.0852,-0.0884,-0.0985,-0.1016,-0.1081,-0.1174,-0.1271,-0.1349,-0.1328,-0.1426,-0.1431,-0.1393,-0.1349,-0.1423,-0.1429,-0.1469,0,0,0,0,0,0,-0.0472,-0.0461,-0.05,-0.0498,-0.0555,-0.0628,-0.0725,-0.0816,-0.0827,-0.0953,-0.1007,-0.1088,-0.1186,-0.1268,-0.1302,-0.1318,-0.1264,-0.1466,-0.1462,-0.142,-0.1425,-0.143,-0.1473,0,0,0,0,0]},{"header":{"parameterUnit":"m.s-1","parameterCategory":2,"la1":30.2991,"la2":30.254,"lo1":-89.0895,"lo2":-89.0444,"dy":0.0017,"dx":0.0017,"nx":28,"ny":28,"refTime":"2024-08-04T21:00:00:Z","depth":"4","parameterNumber":3,"parameterNumberName":"V-component_of_CURRENTS"},"data":[0,0,0,0,0,0,0,0,0,0,0,0,0,0,0,0,0,0,0,0,0,0,0,0,0,0,0,0,0,0,0,0,0,0,0,0,0,0,0,0,0,0,0,0,0,0,0,0,0,0,0,0,0,0,0,0,0,0,0.0252,0.0252,0,0.0223,0.0223,0.0222,0.0249,0.025,0.0251,0.0252,0.0269,0.0269,0.0268,0,0,0,0,0,0,0,0,0,0,0,0,0,0.032,0.0318,0.0252,0.0252,0.0252,0.0223,0.0223,0.0222,0.0249,0.025,0.0251,0.0252,0.027,0.0269,0.0268,0,0,0,0,0,0,0,0,0,0,0,0,0,0.0291,0.0318,0.0252,0.0261,0.0262,0.0223,0.0223,0.0222,0.0248,0.025,0.0251,0.0253,0.027,0.0269,0.0268,0.0231,0,0,0.0266,0.0265,0,0,0,0,0,0,0,0,0.0292,0.0288,0.026,0.026,0.0261,0.0241,0.0253,0.0228,0.0248,0.0253,0.0252,0.0254,0.0263,0.0263,0.0253,0.0232,0.0233,0.0266,0.0265,0.0265,0.0265,0,0,0,0,0,0,0,0.0294,0.0289,0.0241,0.026,0.026,0.0263,0.0261,0.0248,0.0251,0.0253,0.0255,0.0251,0.0264,0.0254,0.0254,0.0233,0.0266,0.0265,0.0265,0.0264,0.0184,0.0182,0,0,0,0,0,0,0.0296,0.0291,0.0242,0.024,0.0281,0.026,0.0258,0.0246,0.025,0.0251,0.025,0.0252,0.0254,0.0255,0.0255,0.0221,0.0265,0.0264,0.0264,0.0185,0.0183,0.0181,0,0,0,0,0,0,0.0297,0.0292,0.0243,0.0266,0.026,0.0258,0.0244,0.0244,0.0242,0.0247,0.025,0.0248,0.0256,0.0256,0.0245,0.0222,0.0264,0.0263,0.0187,0.0185,0.0182,0.0148,0,0,0,0,0,0,0.0299,0.0292,0.0285,0.0265,0.0258,0.0213,0.0242,0.0243,0.0237,0.0241,0.0246,0.0249,0.0257,0.0246,0.0244,0.0222,0.0262,0.0189,0.0186,0.0183,0.0152,0.0145,0.0139,0,0,0,0,0,0.0302,0.0267,0.0284,0.0278,0.0248,0.0211,0.0207,0.0212,0.0236,0.022,0.0232,0.0249,0.0225,0.0244,0.0242,0.0219,0.0191,0.0187,0.0183,0.0154,0.0146,0.0139,0,0,0,0,0,0,0.0289,0.0267,0.0284,0.0247,0.0235,0.0216,0.0199,0.0209,0.0205,0.0217,0.0232,0.0233,0.0216,0.0215,0.0236,0.0184,0.0208,0.0204,0.0186,0.0179,0.0173,0.0167,0.0262,0,0,0,0,0,0.0284,0.0257,0.0246,0.0218,0.0212,0.0211,0.02,0.0205,0.0198,0.0198,0.0201,0.0201,0.0193,0.0188,0.018,0.0149,0.0181,0.013,0.0124,0.0119,0.011,0.0163,0.0162,0.0169,0.0169,0.0169,0,0,0.0272,0.0258,0.0244,0.0215,0.0209,0.0171,0.0208,0.0185,0.0156,0.0199,0.0164,0.0183,0.0182,0.0153,0.0144,0.0153,0.0128,0.0114,0.011,0.0104,0.0159,0.0159,0.0159,0.0167,0.0167,0.0167,0,0,0.0224,0.0224,0.0188,0.017,0.0156,0.0145,0.0139,0.0124,0.0124,0.0099,0.0124,0.0133,0.0107,0.0107,0.0104,0.0055,0.0099,0.0045,0.0006,0.0057,0.0058,0.0059,0.0085,0.0089,0.0037,0.0037,0.0037,0,0.0218,0.0165,0.0171,0.0131,0.0108,0.0129,0.0084,0.0071,0.0055,0.0053,0.0082,0.0072,0.0084,0.0055,0.0042,0.0043,0.0075,0.004,0.0053,0.0055,0.0057,0.0084,0.0088,0.0035,0.0036,0.0036,0.0036,0,0.0139,0.0103,0.0076,0.0032,0.001,-0.003,-0.0039,-0.006,-0.0045,-0.0039,-0.0044,-0.0016,-0.0015,-0.0016,0.0001,0.0,0.0019,0.005,0.0081,0.0055,0.0083,0.0089,0.0032,0.0033,0.0034,0.0034,0,0,0.0106,0.0035,0.0027,-0.0004,-0.0044,-0.0074,-0.0125,-0.016,-0.0181,-0.0163,-0.0172,-0.0165,-0.0112,-0.0113,-0.0083,-0.0045,0.0002,0.0004,0.0008,0.0045,0.0105,0.0114,0.0121,0.005,0.0051,0.0052,0.0116,0,0.0046,-0.0049,-0.0068,-0.0154,-0.0203,-0.0205,-0.0254,-0.0271,-0.0266,-0.0271,-0.0215,-0.0202,-0.0163,-0.0137,-0.0097,-0.0021,0.0017,-0.0019,0.011,0.0113,0.0139,0.0128,0.0055,0.0121,0.0122,0.0123,0.0124,0,-0.0022,-0.0083,-0.0179,-0.0245,-0.0262,-0.0311,-0.0366,-0.0399,-0.0395,-0.0371,-0.0338,-0.0282,-0.0238,-0.0174,-0.0069,-0.0089,0.0001,0.0065,0.0071,0.0095,0.0133,0.0154,0.0135,0.0134,0.0133,0.0132,0.0132,0,-0.0053,-0.0152,-0.0233,-0.0262,-0.0341,-0.0378,-0.0408,-0.043,-0.0445,-0.0416,-0.0399,-0.0338,-0.0287,-0.0179,-0.0044,-0.0045,0.0095,0.0113,0.0195,0.0196,0.0187,0.0186,0.0205,0.0205,0.0205,0.0204,0.0204,0,-0.0115,-0.0176,-0.0258,-0.0304,-0.0392,-0.0413,-0.0476,-0.0493,-0.0493,-0.0492,-0.0436,-0.0403,-0.0275,-0.018,-0.0058,0.0081,0.0089,0.0183,0.0218,0.0166,0.0162,0.0191,0.0189,0.0207,0.0206,0.0206,0.0205,0,-0.014,-0.0194,-0.0288,-0.038,-0.0412,-0.0465,-0.0517,-0.0543,-0.0542,-0.0537,-0.0514,-0.0443,-0.0313,-0.0192,-0.0012,0.0059,0.02,0.0258,0.0176,0.0206,0.0263,0.0257,0.0328,0.0329,0.0329,0.033,0.0331,0,-0.0172,-0.0224,-0.0334,-0.0386,-0.0435,-0.0508,-0.0543,-0.056,-0.0568,-0.0546,-0.0525,-0.0427,-0.0355,-0.0125,0.0013,0.0212,0.0253,0.0299,0.0285,0.0251,0.0278,0.0271,0.0264,0.0332,0.0332,0.0332,0.0332,0,-0.0226,-0.0253,-0.0312,-0.0412,-0.0471,-0.0543,-0.0586,-0.0598,-0.0591,-0.0594,-0.0517,-0.0409,-0.0274,-0.011,0.0043,0.0196,0.0247,0.0308,0.0307,0.0294,0.0257,0.0281,0.0274,0.0335,0.0335,0.0335,0.0334,0,-0.0239,-0.0282,-0.0341,-0.0426,-0.0495,-0.0555,-0.0586,-0.058,-0.0585,-0.0556,-0.0518,-0.0383,-0.0309,-0.0114,0.0041,0.0171,0.0197,0.0222,0.0225,0.0224,0.0177,0.0113,0.0174,0,0,0,0,0,-0.0254,-0.0287,-0.0359,-0.0441,-0.05,-0.0552,-0.0598,-0.0611,-0.0605,-0.055,-0.054,-0.04,-0.02,-0.0112,0.0021,0.0055,0.0216,0.0212,0.0246,0.0351,0.0347,0.0311,0,0,0,0,0,0,-0.0264,-0.0309,-0.0347,-0.0425,-0.0486,-0.0551,-0.0586,-0.059,-0.0557,-0.054,-0.0425,-0.0381,-0.0176,-0.0272,0.002,0.0058,0.0093,0.0305,0.0308,0.0352,0.0349,0.0347,0.0309,0,0,0,0,0]}]]